STARLINK-35171, 65605

Orbit data source: Space-Track

STARLINK-35171, 65605 is a payload satellite owned by SpaceX/Seattle (US) in SSO that was launched on Sat, 13 Sep 2025 UTC via an FALCON 9 launch vehicle from the Air Force Eastern Test Range (AFETR). Payload-class satellites include a variety of spacecraft equipped with specific instruments for various scientific and technological missions. These include communications satellites like Starlink; space stations such as the ISS; scientific satellites like the Hubble; Earth observation satellites from companies like Planet Labs, Umbra, and HawkEye 360; GPS; miniature CubeSats for education and research; and military/defense satellites.

Loading next visibility...
Identifier
65605, 2025-207P
Orbit
SSO
Country
Flag of USUS
Related business
Manufacturer
SpaceX/Seattle
Mission
Operational Commercial Communications
Bus & Motor
STARLINK V2MO, Unknown motor
Mass
575 kg wet, ~530 kg dry
Launch date (UTC)
2025-09-13 (9 months ago)
Launch vehicle
FALCON 9
Launch site
Air Force Eastern Test Range (AFETR)
Object type
Payload
Rocket body
Debris
Shape & HBR
Box + 2 Pan, 17.7 m
Radar Cross Section
36.964 m², Large (>1 m²)

Expand to show TLE details & history
Last TLE update: 16 hours ago

TLE from 16 hours ago
0 STARLINK-35171
1 65605U 25207P   26166.45522804  .00019472  00000-0  13490-2 0  9991
2 65605  97.3633 234.1278 0002212 101.9994 258.1482 15.05673126 42813
Epoch: 2026-06-15T10:55Z
TLE epoch observation values (Epoch: 2026-06-15T10:55:31.702Z)
Latitude
0.00002°
Longitude
166.50434°
Altitude
552.827 km
Speed
7.585 km/s
True Right ascension
15h 36m 30s
True Declination
0° 00' 00"
Sunlit
Object was in full shadow at epoch
Visualization orbit readout
Latitude
Unknown
Longitude
Unknown
Altitude
Unknown
Speed
Unknown
Apparent Right ascension
Unknown
Apparent Declination
Unknown
Sunlit
N/A
Visualization observer readout
Local Sidereal Time
13:38:00
Azimuth
Unknown
Elevation
Unknown
Doppler factor
Unknown
Orbital elements
Apogee altitude
547.955 km
Perigee altitude
544.892 km
Semi-major axis
6,924.56 km
Eccentricity
0.00022
Inclination
97.3633°
RAAN
234.1278°
Arg. of periapsis
101.9994°
True anomaly
258.12339°
Mean anomaly
258.1482°
Eccentric anomaly
258.1358°
Mean motion
3.76665 °/min
Orbital period
95.58 mins
BSTAR
0.001349
Loading maneuver chart data...
Computing Atmospheric mass density...
Loading historical data...
Loading historical data...
Loading historical data...
Loading historical data...
Loading historical data...
Loading historical data...
Loading historical data...

Documentation

Showing up to 5 results
|